Pendleton, OR

10:22 PM PDT on June 22, 2018 (GMT -0700)
Eastern Oreg Regional At Pendleton

Weather History for KPDT - August, 2016

Change the Weather History Date:

Friday, August 19, 2016

  Actual Average Record
Temperature  
Mean Temperature 73 °F 71 °F  
Max Temperature 88 °F 86 °F 109 °F (1897)
Min Temperature 57 °F 57 °F 37 °F (1916)
Degree Days  
Heating Degree Days 0 0  
Month to date heating degree days 1 0  
Since 1 June heating degree days 70 94  
Since 1 July heating degree days 1 11  
Cooling Degree Days 8 7  
Month to date cooling degree days 149 157  
Year to date cooling degree days 510 505  
Since 1 June cooling degree days 492 482  
Growing Degree Days 22 (Base 50)    
Moisture  
Dew Point 40 °F    
Average Humidity 37    
Maximum Humidity 57    
Minimum Humidity 17    
Precipitation  
Precipitation 0.00 in 0.02 in 0.56 in (1924)
Month to date precipitation 0.07 0.22  
Year to date precipitation 7.39 7.93  
Snow  
Snow 0.00 in 0.00 in 0.00 in (2002)
Month to date snowfall 0.0 0.0  
Year to date snowfall T 7.7  
Since 1 July snowfall 0.0 0.0  
Snow Depth 0.00 in    
Sea Level Pressure  
Sea Level Pressure 29.98 in    
Wind  
Wind Speed 7 mph (NW)    
Max Wind Speed 17 mph    
Max Gust Speed 25 mph    
Visibility 10 miles    
Events      
T = Trace of Precipitation, MM = Missing Value Source: NWS Daily Summary

Daily Weather History Graph

Daily Weather History Graph

Search for Another Location

Airport or City:

Astronomy

Aug. 19, 2016 Rise Set
Actual Time 6:01 AM PDT 7:55 PM PDT
Civil Twilight 5:29 AM PDT 8:27 PM PDT
Nautical Twilight 4:50 AM PDT 9:06 PM PDT
Astronomical Twilight 4:07 AM PDT 9:48 PM PDT
Moon 8:45 PM PDT (8/19) 7:29 AM PDT (8/19)
Length of Visible Light 14h 57m
Length of Day
13h 54m
Full, 97% of the Moon is Illuminated
Aug 19
Full
Aug 24
Last Quarter
Sep 1
New
Sep 9
First Quarter
Sep 16
Full

Hourly Weather History & Observations

Time (PDT) Temp. Dew Point Humidity Pressure Visibility Wind Dir Wind Speed Gust Speed Precip Events Conditions
12:53 AM 66.0 °F 36.0 °F 33% 29.91 in 10.0 mi Calm Calm - N/A   Clear
1:53 AM 66.0 °F 37.0 °F 34% 29.92 in 10.0 mi Calm Calm - N/A   Clear
2:53 AM 64.0 °F 35.1 °F 34% 29.93 in 10.0 mi NNW 10.4 mph - N/A   Clear
3:53 AM 62.1 °F 37.0 °F 39% 29.95 in 10.0 mi NW 4.6 mph - N/A   Clear
4:53 AM 61.0 °F 43.0 °F 52% 29.96 in 10.0 mi WNW 5.8 mph - N/A   Clear
5:53 AM 57.9 °F 42.1 °F 56% 29.99 in 10.0 mi WNW 5.8 mph - N/A   Clear
6:53 AM 60.1 °F 44.1 °F 55% 30.02 in 10.0 mi North - - N/A   Clear
7:53 AM 68.0 °F 43.0 °F 40% 30.04 in 10.0 mi NW 5.8 mph - N/A   Clear
8:53 AM 71.1 °F 43.0 °F 36% 30.05 in 10.0 mi WNW 6.9 mph - N/A   Clear
9:53 AM 72.0 °F 43.0 °F 35% 30.06 in 10.0 mi Variable 6.9 mph - N/A   Clear
10:53 AM 75.0 °F 43.0 °F 32% 30.07 in 10.0 mi WNW 10.4 mph - N/A   Partly Cloudy
11:53 AM 80.1 °F 42.1 °F 26% 30.06 in 10.0 mi NW 12.7 mph 20.7 mph N/A   Clear
12:53 PM 82.0 °F 43.0 °F 25% 30.04 in 10.0 mi NNW 6.9 mph - N/A   Clear
1:00 PM - - N/A% - - North - - N/A   Unknown
1:53 PM 84.0 °F 41.0 °F 22% 30.02 in 10.0 mi Variable 6.9 mph - N/A   Clear
2:53 PM 86.0 °F 41.0 °F 20% 30.00 in 10.0 mi NNW 8.1 mph - N/A   Clear
3:53 PM 88.0 °F 39.9 °F 18% 29.97 in 10.0 mi Variable 6.9 mph 16.1 mph N/A   Clear
4:53 PM 87.1 °F 39.0 °F 18% 29.96 in 10.0 mi North 6.9 mph - N/A   Clear
5:53 PM 87.1 °F 37.9 °F 18% 29.94 in 10.0 mi NW 9.2 mph - N/A   Clear
6:53 PM 84.9 °F 37.9 °F 19% 29.93 in 10.0 mi North 6.9 mph - N/A   Clear
7:53 PM 75.9 °F 37.0 °F 24% 29.93 in 10.0 mi NW 6.9 mph - N/A   Clear
8:53 PM 70.0 °F 36.0 °F 29% 29.94 in 10.0 mi NNW 6.9 mph - N/A   Clear
9:53 PM 72.0 °F 37.0 °F 28% 29.95 in 10.0 mi ESE 4.6 mph - N/A   Clear
10:53 PM 66.9 °F 37.9 °F 34% 29.95 in 10.0 mi SE 6.9 mph - N/A   Clear
11:53 PM 66.0 °F 39.0 °F 37% 29.94 in 10.0 mi SSE 9.2 mph - N/A   Clear